TimeEDT,TemperatureF,Dew PointF,Humidity,Sea Level PressureIn,VisibilityMPH,Wind Direction,Wind SpeedMPH,Gust SpeedMPH,PrecipitationIn,Events,Conditions,WindDirDegrees,DateUTC
12:53 AM,82.0,73.9,76,30.14,10.0,ESE,8.1,-,N/A,,Partly Cloudy,110,2013-06-25 04:53:00
1:53 AM,82.0,75.0,79,30.13,10.0,East,9.2,-,N/A,,Partly Cloudy,90,2013-06-25 05:53:00
2:53 AM,81.0,75.0,82,30.11,10.0,East,8.1,-,N/A,,Partly Cloudy,90,2013-06-25 06:53:00
3:53 AM,82.0,73.9,76,30.09,10.0,East,11.5,-,N/A,,Clear,100,2013-06-25 07:53:00
4:53 AM,81.0,75.0,82,30.09,10.0,East,8.1,-,N/A,,Partly Cloudy,100,2013-06-25 08:53:00
5:53 AM,81.0,75.0,82,30.08,10.0,East,10.4,-,N/A,,Scattered Clouds,100,2013-06-25 09:53:00
6:43 AM,82.4,75.2,79,30.08,10.0,East,9.2,-,N/A,,Mostly Cloudy,80,2013-06-25 10:43:00
6:53 AM,82.0,75.9,82,30.08,10.0,ESE,9.2,-,N/A,,Mostly Cloudy,110,2013-06-25 10:53:00
7:13 AM,82.4,75.2,79,30.08,10.0,East,10.4,-,N/A,,Scattered Clouds,90,2013-06-25 11:13:00
7:53 AM,82.9,75.9,79,30.09,10.0,East,11.5,-,N/A,,Scattered Clouds,90,2013-06-25 11:53:00
8:53 AM,84.0,75.9,76,30.10,10.0,East,10.4,-,N/A,,Scattered Clouds,100,2013-06-25 12:53:00
9:53 AM,84.9,75.9,74,30.11,10.0,East,10.4,-,N/A,,Scattered Clouds,100,2013-06-25 13:53:00
10:53 AM,86.0,75.9,72,30.12,10.0,ESE,11.5,-,N/A,,Partly Cloudy,120,2013-06-25 14:53:00
11:53 AM,87.1,77.0,72,30.13,10.0,ESE,12.7,-,0.00,,Scattered Clouds,110,2013-06-25 15:53:00
12:53 PM,87.1,77.0,72,30.12,10.0,ESE,11.5,-,N/A,,Clear,120,2013-06-25 16:53:00
1:53 PM,87.1,75.0,67,30.10,10.0,ESE,11.5,-,N/A,,Clear,110,2013-06-25 17:53:00
2:53 PM,87.1,75.9,69,30.10,10.0,ESE,13.8,-,N/A,,Clear,120,2013-06-25 18:53:00
3:53 PM,86.0,75.9,72,30.07,10.0,SE,17.3,-,N/A,,Scattered Clouds,130,2013-06-25 19:53:00
4:53 PM,86.0,77.0,74,30.06,10.0,ESE,11.5,20.7,N/A,,Clear,110,2013-06-25 20:53:00
5:53 PM,84.9,78.1,80,30.07,10.0,SE,18.4,23.0,N/A,,Partly Cloudy,130,2013-06-25 21:53:00
6:53 PM,82.0,75.9,82,30.08,10.0,SE,11.5,-,N/A,,Partly Cloudy,140,2013-06-25 22:53:00
7:53 PM,82.0,75.0,79,30.07,10.0,SE,10.4,-,N/A,,Clear,130,2013-06-25 23:53:00
8:53 PM,82.0,75.0,79,30.05,10.0,SE,9.2,-,N/A,,Clear,130,2013-06-26 00:53:00
9:53 PM,82.0,77.0,85,30.08,10.0,ESE,5.8,-,N/A,,Clear,110,2013-06-26 01:53:00
10:53 PM,82.0,77.0,85,30.09,10.0,SE,8.1,-,N/A,,Partly Cloudy,130,2013-06-26 02:53:00
11:53 PM,82.0,77.0,85,30.09,10.0,ESE,11.5,-,N/A,,Clear,120,2013-06-26 03:53:00